カタログに戻る

BREEZE-M DEB

TANK

運用中HEO
NORAD 41583·DEBRIS·🇷🇺 Russia

打ち上げ Jun 9, 2016 から Baikonur Cosmodrome

Loading…

次のパス (今後24時間)

TLE

最新Source: Space-Track

元期: Sep 13, 2026, 19:46 UTC

1 41583U 16035C   26256.82362494  .00001503  00000-0  56205-3 0  9995
2 41583  50.7167 220.9263 4989189  48.2448 344.8432  5.56746370206796

AllMySatでBREEZE-M DEBをリアルタイム追跡

Download on the App Store